STARLINK-5653, 55345

Orbit data source: Space-Track

STARLINK-5653, 55345 is a payload satellite owned by SpaceX/Seattle (US) in LEO that was launched on Thu, 26 Jan 2023 UTC via an FALCON 9 launch vehicle from the Air Force Eastern Test Range (AFETR). Payload-class satellites include a variety of spacecraft equipped with specific instruments for various scientific and technological missions. These include communications satellites like Starlink; space stations such as the ISS; scientific satellites like the Hubble; Earth observation satellites from companies like Planet Labs, Umbra, and HawkEye 360; GPS; miniature CubeSats for education and research; and military/defense satellites.

Loading next visibility...
Identifier
55345, 2023-013Q
Orbit
LEO
Country
Flag of USUS
Related business
Manufacturer
SpaceX/Seattle
Mission
Operational Commercial Communications
Bus & Motor
STARLINK, Unknown motor
Mass
305 kg wet, ~290 kg dry
Launch date (UTC)
2023-01-26 (3 years ago)
Launch vehicle
FALCON 9
Launch site
Air Force Eastern Test Range (AFETR)
Object type
Payload
Rocket body
Debris
Shape & HBR
Box + 1 Pan, 10.1 m
Radar Cross Section
13.562 m², Large (>1 m²)

Expand to show TLE details & history
Last TLE update: 21 hours ago

TLE from 21 hours ago
0 STARLINK-5653
1 55345U 23013Q   25348.83172009  .00000137  00000-0  25182-4 0  9996
2 55345  43.0042  28.4824 0001119 276.5480  83.5235 15.02529722159094
Epoch: 2025-12-14T19:57Z
TLE epoch observation values (Epoch: 2025-12-14T19:57:40.615Z)
Latitude
-0.00003°
Longitude
5.32415°
Altitude
558.79 km
Speed
7.584 km/s
True Right ascension
01h 53m 55s
True Declination
0° 00' 00"
Sunlit
Object was in full shadow at epoch
Visualization orbit readout
Latitude
Unknown
Longitude
Unknown
Altitude
Unknown
Speed
Unknown
Apparent Right ascension
Unknown
Apparent Declination
Unknown
Sunlit
N/A
Visualization observer readout
Local Sidereal Time
15:06:13
Azimuth
Unknown
Elevation
Unknown
Doppler factor
Unknown
Orbital elements
Apogee altitude
561.799 km
Perigee altitude
560.246 km
Semi-major axis
6,939.159 km
Eccentricity
0.00011
Inclination
43.0042°
RAAN
28.4824°
Arg. of periapsis
276.548°
True anomaly
83.53624°
Mean anomaly
83.5235°
Eccentric anomaly
83.52987°
Mean motion
3.75477 °/min
Orbital period
95.88 mins
BSTAR
0.000025182
Loading maneuver chart data...
Computing Atmospheric mass density...
Loading historical data...
Loading historical data...
Loading historical data...
Loading historical data...
Loading historical data...
Loading historical data...
Loading historical data...

Documentation

Showing up to 5 results
|